User: anonymous   Login
Location: Glencliff
(36.1226°N, 86.7183°W)
Time: 11:36:23
(UTC+00:00)
Language:

Cosmos 1697 Rocket - Orbit

View from above orbital plane
View from above orbital plane
View from above satellite
View from above satellite

Ground track
Ground track

The orbit data is extracted from the following two-line orbital elements,

1 16182U 85097B   19294.53636227 +.00000008 +00000-0 +28300-4 0  9991
2 16182 071.0054 006.2947 0008936 223.1174 267.9485 14.16247713757186
Epoch (UTC): 21 October 2019 12:52:21
Eccentricity: 0.0008936
inclination: 71.0054°
perigee height: 831 km
apogee height: 844 km
right ascension of ascending node: 6.2947°
argument of perigee: 223.1174°
revolutions per day: 14.16247713
mean anomaly at epoch: 267.9485°
orbit number at epoch: 75718

The dashed part of the orbit path shows where the satellite is in the earth's shadow,  

DLR